Weather History for Monett, MO

Change the Weather History Date:

Thursday, February 21, 2013

  Actual Average (KJLN) Record (KJLN)
Temperature  
Mean Temperature 30 °F 42 °F  
Max Temperature 32 °F 52 °F 76 °F (1996)
Min Temperature 28 °F 31 °F 9 °F (1963)
Degree Days  
Heating Degree Days 35 23  
Month to date heating degree days 550  
Since 1 July heating degree days 3099  
Cooling Degree Days 0 0  
Month to date cooling degree days 0  
Year to date cooling degree days 0  
Moisture  
Dew Point 27 °F    
Average Humidity 90    
Maximum Humidity 100    
Minimum Humidity 64    
Precipitation  
Precipitation 0.61 in 0.09 in 1.05 in (2013)
Month to date precipitation 1.67  
Year to date precipitation 3.70  
Sea Level Pressure  
Sea Level Pressure 29.82 in    
Wind  
Wind Speed 14 mph (ESE)    
Max Wind Speed 23 mph    
Max Gust Speed 31 mph    
Visibility 7 miles    
Events Rain , Snow , Thunderstorm    
T = Trace of Precipitation, MM = Missing Value Source: NWS Daily Summary

Daily Weather History Graph

Daily Weather History Graph

Search for Another Location

Airport:

Trip Planner

Search our weather history database for the weather conditions in past years. The results will help you decide how hot, cold, wet, or windy it might be!

Date:

Astronomy

Feb. 21, 2013 Rise Set
Actual Time 6:56 AM CST 6:02 PM CST
Civil Twilight 6:30 AM CST 6:29 PM CST
Nautical Twilight 6:00 AM CST 6:59 PM CST
Astronomical Twilight 5:30 AM CST 7:29 PM CST
Moon 2:21 PM CST (2/21) 3:58 AM CST (2/21)
Length of Visible Light 11h 58m
Length of Day
11h 05m
Waxing Gibbous, 84% of the Moon is Illuminated
Feb 21
Waxing Gibbous
Feb 25
Full
Mar 4
Last Quarter
Mar 11
New
Mar 19
First Quarter

Hourly Weather History & Observations

Time (CST) Temp. Windchill Dew Point Humidity Pressure Visibility Wind Dir Wind Speed Gust Speed Precip Events Conditions
12:15 AM 30.2 °F 20.8 °F 19.4 °F 64% 30.07 in 10.0 mi East 11.5 mph 18.4 mph N/A   Light Freezing Rain
12:35 AM 30.2 °F 18.1 °F 19.4 °F 64% 30.05 in 10.0 mi ESE 18.4 mph 25.3 mph N/A   Overcast
12:55 AM 30.2 °F 18.5 °F 19.4 °F 64% 30.05 in 10.0 mi ESE 17.3 mph - N/A Rain Light Freezing Rain
1:15 AM 30.2 °F 18.9 °F 19.4 °F 64% 30.04 in 10.0 mi East 16.1 mph 23.0 mph N/A   Overcast
1:35 AM 30.2 °F 19.3 °F 19.4 °F 64% 30.03 in 10.0 mi East 15.0 mph 26.5 mph N/A   Light Freezing Rain
1:55 AM 28.4 °F 17.0 °F 19.4 °F 69% 30.02 in 10.0 mi East 15.0 mph 24.2 mph N/A   Overcast
2:15 AM 28.4 °F 16.6 °F 19.4 °F 69% 30.00 in 10.0 mi East 16.1 mph 25.3 mph N/A   Overcast
2:35 AM 28.4 °F 17.0 °F 19.4 °F 69% 29.99 in 10.0 mi East 15.0 mph 24.2 mph N/A   Overcast
2:55 AM 28.4 °F 15.4 °F 19.4 °F 69% 29.98 in 10.0 mi East 19.6 mph 24.2 mph N/A   Light Freezing Rain
3:15 AM 28.4 °F 15.4 °F 21.2 °F 74% 29.96 in 10.0 mi East 19.6 mph 24.2 mph N/A   Light Freezing Rain
3:35 AM 28.4 °F 15.1 °F 21.2 °F 74% 29.92 in 10.0 mi East 20.7 mph 26.5 mph N/A   Light Freezing Rain
3:55 AM 28.4 °F 16.2 °F 21.2 °F 74% 29.93 in 10.0 mi ESE 17.3 mph 27.6 mph N/A   Overcast
4:15 AM 28.4 °F 14.4 °F 23.0 °F 80% 29.89 in 10.0 mi East 23.0 mph 31.1 mph N/A   Light Freezing Rain
4:35 AM 28.4 °F 15.4 °F 23.0 °F 80% 29.89 in 10.0 mi East 19.6 mph 25.3 mph N/A   Overcast
5:15 AM 28.4 °F 17.0 °F 23.0 °F 80% 29.88 in 10.0 mi East 15.0 mph 25.3 mph N/A   Overcast
5:35 AM 28.4 °F 16.2 °F 24.8 °F 86% 29.88 in 10.0 mi East 17.3 mph 28.8 mph 0.01 in Thunderstorm Overcast
5:55 AM 28.4 °F 16.6 °F 26.6 °F 93% 29.88 in 4.0 mi ESE 16.1 mph 26.5 mph 0.03 in Thunderstorm Thunderstorm
6:15 AM 28.4 °F 16.2 °F 26.6 °F 93% 29.80 in 5.0 mi East 17.3 mph 24.2 mph 0.01 in Rain , Thunderstorm Light Freezing Rain
6:35 AM 28.4 °F 20.4 °F 26.6 °F 93% 29.89 in 4.0 mi East 8.1 mph 23.0 mph 0.04 in Snow , Thunderstorm Light Thunderstorms and Snow
6:55 AM 28.4 °F 18.5 °F 26.6 °F 93% 29.83 in 4.0 mi East 11.5 mph 25.3 mph 0.17 in Snow , Thunderstorm Light Thunderstorms and Snow
7:15 AM 28.4 °F 15.4 °F 26.6 °F 93% 29.81 in 5.0 mi East 19.6 mph 25.3 mph N/A Snow Light Snow
7:35 AM 28.4 °F 16.6 °F 26.6 °F 93% 29.80 in 7.0 mi East 16.1 mph 20.7 mph N/A Snow Light Snow
7:55 AM 28.4 °F 14.4 °F 26.6 °F 93% 29.77 in 7.0 mi ESE 23.0 mph 29.9 mph N/A   Overcast
8:15 AM 28.4 °F 14.7 °F 26.6 °F 93% 29.74 in 10.0 mi ESE 21.9 mph 28.8 mph N/A Thunderstorm Thunderstorm
8:35 AM 28.4 °F 16.2 °F 26.6 °F 93% 29.76 in 10.0 mi ESE 17.3 mph 27.6 mph N/A Thunderstorm Overcast
8:55 AM 30.2 °F 26.7 °F 26.6 °F 86% 29.86 in 4.0 mi North 3.5 mph - 0.02 in Snow , Thunderstorm Light Thunderstorms and Snow
9:15 AM 30.2 °F 25.4 °F 28.4 °F 93% 29.86 in 1.0 mi North 4.6 mph - 0.09 in Snow , Thunderstorm Light Thunderstorms and Snow
9:35 AM 30.2 °F 24.3 °F 28.4 °F 93% 29.83 in 4.0 mi NE 5.8 mph - 0.20 in Snow , Thunderstorm Light Thunderstorms and Snow
9:55 AM 30.2 °F 26.7 °F 28.4 °F 93% 29.88 in 1.2 mi North 3.5 mph - 0.27 in Snow , Thunderstorm Light Thunderstorms and Snow
10:15 AM 28.4 °F 22.2 °F 28.4 °F 100% 29.87 in 0.5 mi ENE 5.8 mph - 0.05 in Snow , Thunderstorm Light Thunderstorms and Snow
10:35 AM 30.2 °F 24.3 °F 28.4 °F 93% 29.89 in 0.5 mi ENE 5.8 mph - 0.10 in Snow , Thunderstorm Light Thunderstorms and Snow
10:55 AM 30.2 °F 20.2 °F 28.4 °F 93% 29.82 in 0.8 mi East 12.7 mph - 0.12 in Snow Light Snow
11:15 AM 30.2 °F 21.3 °F 28.4 °F 93% 29.79 in 2.5 mi East 10.4 mph 19.6 mph N/A   Overcast
11:35 AM 30.2 °F 20.8 °F 28.4 °F 93% 29.80 in 10.0 mi East 11.5 mph 18.4 mph N/A   Overcast
12:15 PM 30.2 °F 18.1 °F 28.4 °F 93% 29.78 in 10.0 mi ESE 18.4 mph 24.2 mph N/A   Overcast
12:35 PM 30.2 °F 18.9 °F 28.4 °F 93% 29.75 in 10.0 mi East 16.1 mph 24.2 mph N/A   Overcast
12:55 PM 30.2 °F 18.9 °F 28.4 °F 93% 29.73 in 10.0 mi ESE 16.1 mph - N/A   Overcast
1:15 PM 30.2 °F 18.9 °F 28.4 °F 93% 29.71 in 10.0 mi ESE 16.1 mph - N/A   Overcast
1:35 PM 30.2 °F 20.2 °F 28.4 °F 93% 29.70 in 10.0 mi ESE 12.7 mph 21.9 mph N/A   Overcast
1:55 PM 30.2 °F 20.8 °F 28.4 °F 93% 29.70 in 10.0 mi ESE 11.5 mph 17.3 mph N/A   Overcast
2:15 PM 30.2 °F 19.3 °F 28.4 °F 93% 29.69 in 7.0 mi East 15.0 mph - N/A   Overcast
2:35 PM 30.2 °F 19.8 °F 28.4 °F 93% 29.69 in 4.0 mi ESE 13.8 mph 18.4 mph N/A   Overcast
2:55 PM 30.2 °F 20.2 °F 28.4 °F 93% 29.69 in 3.0 mi ESE 12.7 mph 19.6 mph N/A   Overcast
3:15 PM 30.2 °F 19.8 °F 30.2 °F 100% 29.68 in 2.0 mi ESE 13.8 mph 18.4 mph N/A   Overcast
3:35 PM 30.2 °F 18.5 °F 30.2 °F 100% 29.66 in 2.5 mi ESE 17.3 mph 21.9 mph N/A   Overcast
3:55 PM 30.2 °F 19.8 °F 30.2 °F 100% 29.68 in 4.0 mi ESE 13.8 mph 20.7 mph N/A   Overcast
4:15 PM 30.2 °F 20.8 °F 30.2 °F 100% 29.69 in 4.0 mi ESE 11.5 mph - N/A   Overcast
4:35 PM 32.0 °F 22.5 °F 30.2 °F 93% 29.69 in 2.5 mi SE 12.7 mph 16.1 mph N/A   Overcast
4:55 PM 32.0 °F 23.6 °F 30.2 °F 93% 29.71 in 2.0 mi SE 10.4 mph 18.4 mph N/A   Light Drizzle
5:15 PM 32.0 °F 22.5 °F 30.2 °F 93% 29.72 in 2.5 mi SE 12.7 mph - N/A   Overcast
5:35 PM 32.0 °F 24.2 °F 30.2 °F 93% 29.73 in 4.0 mi SE 9.2 mph - N/A   Overcast
5:55 PM 32.0 °F 24.2 °F 30.2 °F 93% 29.73 in 5.0 mi SE 9.2 mph - N/A   Overcast
6:15 PM 32.0 °F 25.6 °F 30.2 °F 93% 29.73 in 10.0 mi SE 6.9 mph - N/A   Overcast
6:35 PM 32.0 °F 25.6 °F 30.2 °F 93% 29.74 in 10.0 mi SSE 6.9 mph - N/A   Overcast
6:55 PM 32.0 °F 23.6 °F 30.2 °F 93% 29.73 in 7.0 mi SE 10.4 mph - N/A   Overcast
7:15 PM 32.0 °F 25.6 °F 30.2 °F 93% 29.75 in 7.0 mi SSE 6.9 mph - N/A   Overcast
7:35 PM 32.0 °F 25.6 °F 32.0 °F 100% 29.75 in 4.0 mi SE 6.9 mph - N/A   Light Drizzle
7:55 PM 32.0 °F 25.6 °F 32.0 °F 100% 29.75 in 4.0 mi SSE 6.9 mph - N/A   Overcast
8:15 PM 32.0 °F 25.6 °F 32.0 °F 100% 29.75 in 7.0 mi SSE 6.9 mph - N/A   Overcast
8:35 PM 32.0 °F 26.4 °F 32.0 °F 100% 29.75 in 10.0 mi South 5.8 mph - N/A   Overcast
8:55 PM 32.0 °F 25.6 °F 32.0 °F 100% 29.76 in 10.0 mi SSE 6.9 mph - N/A   Overcast
9:15 PM 32.0 °F 24.8 °F 32.0 °F 100% 29.76 in 10.0 mi South 8.1 mph - N/A   Overcast
9:35 PM 32.0 °F 24.2 °F 32.0 °F 100% 29.79 in 7.0 mi SSW 9.2 mph - N/A   Overcast
9:55 PM 32.0 °F 23.6 °F 32.0 °F 100% 29.78 in 7.0 mi SW 10.4 mph - N/A   Overcast
10:15 PM 32.0 °F 24.2 °F 32.0 °F 100% 29.79 in 5.0 mi WSW 9.2 mph - N/A   Overcast
10:35 PM 32.0 °F 23.0 °F 32.0 °F 100% 29.79 in 7.0 mi WSW 11.5 mph - N/A   Overcast
10:55 PM 32.0 °F 23.0 °F 32.0 °F 100% 29.81 in 10.0 mi WSW 11.5 mph - N/A   Overcast
11:15 PM 32.0 °F 23.0 °F 32.0 °F 100% 29.81 in 5.0 mi SW 11.5 mph - N/A   Overcast
11:35 PM 32.0 °F 23.0 °F 32.0 °F 100% 29.81 in 5.0 mi WSW 11.5 mph - N/A Snow Light Snow
11:55 PM 32.0 °F 23.0 °F 32.0 °F 100% 29.81 in 10.0 mi WSW 11.5 mph - N/A   Overcast